Location: Carson
(33.8314°N, 118.2820°W)
Time: 14:02:02
(UTC+00:00)

SKYMED 3 - Pass Details

Date: 23 November 2020
Orbit: 621 x 623 km, 97.9° (Epoch: 22 January)

Event Time Altitude Azimuth Distance (km) Brightness Sun altitude
Rises 13:17:49 0° 171° (S) 2,884 8.3 -15.6°
Reaches altitude 10° 13:20:00 10° 172° (S) 1,982 7.4 -15.2°
Maximum altitude 13:24:19 75° 259° (WSW) 646 4.5 -14.3°
Drops below altitude 10° 13:28:39 10° 344° (NNW) 1,996 6.9 -13.4°
Sets 13:30:51 0° 346° (NNW) 2,906 7.7 -13.0°
